This is the latest recevied weather packets stored in our database for station/object OE3UKW. If no packets are shown the sender has not sent any weather packets the latest 10 day(s).
| Time | Temp. | Humidity | Pressure | Rain* | Wind** | Luminosity | Snow |
|---|---|---|---|---|---|---|---|
| 1778091073 | 20.56° C | 46% | 1005.6 hPa | 0 mm | - | 5 W/m² | - |
| 1778090473 | 20.56° C | 45% | 1005.3 hPa | 0 mm | - | 16 W/m² | - |
| 1778089873 | 20.56° C | 45% | 1005.3 hPa | 0 mm | - | 28 W/m² | - |
| 1778089272 | 21.11° C | 44% | 1005.4 hPa | 0 mm | - | 31 W/m² | - |
| 1778088673 | 21.11° C | 43% | 1005.3 hPa | 0 mm | - | 39 W/m² | - |
| 1778088073 | 21.67° C | 42% | 1005.2 hPa | 0 mm | - | 49 W/m² | - |
| 1778087472 | 21.67° C | 40% | 1005.3 hPa | 0 mm | - | 54 W/m² | - |
| 1778086872 | 22.22° C | 39% | 1005.4 hPa | 0 mm | - | 62 W/m² | - |
| 1778086272 | 22.22° C | 38% | 1005.5 hPa | 0 mm | - | 65 W/m² | - |
| 1778085672 | 22.78° C | 37% | 1005.4 hPa | 0 mm | - | 74 W/m² | - |
| 1778085072 | 22.78° C | 36% | 1005.5 hPa | 0 mm | - | 93 W/m² | - |
| 1778084472 | 23.33° C | 36% | 1005.5 hPa | 0 mm | - | 116 W/m² | - |
| 1778083872 | 23.33° C | 36% | 1005.7 hPa | 0 mm | - | 134 W/m² | - |
| 1778083272 | 23.89° C | 35% | 1005.7 hPa | 0 mm | - | 158 W/m² | - |
| 1778082672 | 23.89° C | 35% | 1005.8 hPa | 0 mm | - | 230 W/m² | - |
| 1778082072 | 23.89° C | 35% | 1005.8 hPa | 0 mm | - | 224 W/m² | - |
| 1778081472 | 23.89° C | 35% | 1005.9 hPa | 0 mm | - | 192 W/m² | - |
| 1778080872 | 23.89° C | 34% | 1005.9 hPa | 0 mm | - | 196 W/m² | - |
| 1778080272 | 24.44° C | 33% | 1005.9 hPa | 0 mm | - | 198 W/m² | - |
| 1778079672 | 24.44° C | 32% | 1005.9 hPa | 0 mm | - | 236 W/m² | - |
| 1778079072 | 24.44° C | 33% | 1005.9 hPa | 0 mm | - | 262 W/m² | - |
| 1778078472 | 24.44° C | 33% | 1006.2 hPa | 0 mm | - | 363 W/m² | - |
| 1778077872 | 25.56° C | 32% | 1006.2 hPa | 0 mm | - | 418 W/m² | - |
| 1778077272 | 25° C | 32% | 1006.2 hPa | 0 mm | - | 473 W/m² | - |
| 1778076672 | 25.56° C | 32% | 1006.3 hPa | 0 mm | - | 565 W/m² | - |
* Rain latest hour (hover to see other rain measurements)
** Current wind speed in m/s (hover to see current wind gust speed)